Погода в Евсуге

Украина / Луганская область     49°12′05″N   39°18′43″E
темп.,
°C
ветер,
м/с
пор.,
м/с
влажн.,
%
обл.,
%
осадки,
мм/ч
давл.,
гПа
погр.,
м
13 августа, сб
сб1300:00+27всв41037100 0.0 1016287
03:00+27всв6113998 0.0 1016416
06:00+25св61047100 0.0 1015246
09:00+29вюв6931100 0.0 1015719
12:00+34юв7101764 0.0 10152918
15:00+32св352088 0.0 1014584
18:00+34ссв5620100 0.0 1012851
21:00+28всв101735100 0.0 1013676
14 августа, вс
вс1400:00+27всв7153190 0.0 1013681
03:00+27в8163199 0.0 1013667
06:00+26в7153187 0.0 1013557
09:00+30в9132099 0.0 10131082
12:00+34в8101692 0.0 10122230
15:00+36всв91015100 0.0 10103486
18:00+35всв81016100 0.0 10092648
21:00+30всв9162099 0.0 1010729
15 августа, пн
пн1500:00+27всв101827100 0.0 1011615
03:00+26всв7163068 0.0 1011486
06:00+25в6143177 0.0 1011469
09:00+31вюв710229 0.0 1011736
12:00+36в8101568 0.0 10112946
15:00+38вюв9101578 0.0 10103895
18:00+36вюв7917100 0.0 10103772
21:00+32в10152294 0.0 1011979
16 августа, вт
вт1600:00+27в9172589 0.0 1013639
03:00+26в81526100 0.0 1013540
06:00+24в61428100 0.0 1014505
09:00+26в71226100 0.0 1013486
12:00+32в81020100 0.0 10131386
15:00+36вюв81217100 0.0 10112946
18:00+34всв61119100 0.0 1009568
21:00+33в7142097 0.0 1009721
17 августа, ср
ср1700:00+29вюв61223100 0.0 1011453
03:00+26в8173291 0.3 1010516
06:00+26в715296 0.5 1010536
09:00+31вюв710206 0.5 10091039
12:00+36юв6717100 0.0 10081926
15:00+37юв671995 0.1 10072508
18:00+35ююв13236 0.1 1007419
21:00+27с224173 1.4 100716